Date String (YYYY-MM-DD hh:mm:ss) UTC,Instrument flags,Ambient pressure (hPa),Sample flow (lpm),Bypass flow (lpm),Sample temperature (°C),Ambient temperature (°C),ASC tube jacket temperature (°C),LED temperature (°C),Box temperature (°C),Sample RH (%),Span deviation,Mass concentration (μg/m³),Mass concentration (μg/m³),Mass concentration (μg/m³)
DateTimeUTC,F1_M11,P_M11,Q1_M11,Q2_M11,T1_M11,T2_M11,T3_M11,T4_M11,T5_M11,U1_M11,ZSPAN_M11,X0_M11,X2_M11,X1_M11
2023-02-25 22:00:00,,0821.7,5.00,0.00,23.1,21.8,00.0,31.8,25.0,11.9,0000.0,0003.47,0001.40,0000.76
2023-02-25 22:01:00,,0821.7,5.01,0.00,23.1,21.8,00.0,31.8,24.9,11.6,0000.0,0002.72,0001.43,0000.76
2023-02-25 22:02:00,,0821.6,5.00,0.00,23.1,21.8,00.0,31.8,24.9,11.3,0000.0,0002.67,0001.44,0000.75
2023-02-25 22:03:00,,0821.6,4.98,0.00,23.1,21.8,00.0,31.8,24.9,10.8,0000.0,0002.75,0001.42,0000.76
2023-02-25 22:04:00,,0821.7,5.00,0.00,23.1,21.8,00.0,31.8,24.9,10.6,0000.0,0002.79,0001.44,0000.78
2023-02-25 22:05:00,,0821.7,4.99,0.00,23.1,21.8,00.0,31.8,24.9,10.5,0000.0,0002.89,0001.48,0000.77
2023-02-25 22:06:00,,0821.6,5.01,0.00,23.1,21.8,00.0,31.8,24.9,10.6,0000.0,0002.97,0001.51,0000.77
2023-02-25 22:07:00,,0821.7,5.00,0.00,23.1,21.7,00.0,31.8,24.9,10.4,0000.0,0002.94,0001.48,0000.78
2023-02-25 22:08:00,,0821.7,5.01,0.00,23.1,21.7,00.0,31.8,24.9,11.2,0000.0,0002.77,0001.44,0000.78
2023-02-25 22:09:00,,0821.6,5.01,0.00,23.1,21.7,00.0,31.8,24.9,11.1,0000.0,0002.65,0001.42,0000.79
2023-02-25 22:10:00,,0821.7,5.01,0.00,23.1,21.7,00.0,31.8,24.9,11.4,0000.0,0002.63,0001.41,0000.80
2023-02-25 22:11:00,,0821.7,5.01,0.00,23.1,21.7,00.0,31.8,24.9,11.6,0000.0,0002.70,0001.44,0000.81
2023-02-25 22:12:00,,0821.7,5.02,0.00,23.1,21.7,00.0,31.8,24.9,11.1,0000.0,0002.61,0001.40,0000.81
2023-02-25 22:13:00,,0821.7,5.01,0.00,23.1,21.7,00.0,31.8,24.9,11.3,0000.0,0002.55,0001.38,0000.81
2023-02-25 22:14:00,,0821.7,5.00,0.00,23.1,21.8,00.0,31.8,24.9,12.0,0000.0,0002.46,0001.37,0000.80
2023-02-25 22:15:00,,0821.6,5.00,0.00,23.1,21.8,00.0,31.8,24.9,11.5,0000.0,0002.38,0001.35,0000.79
2023-02-25 22:16:00,,0821.7,5.00,0.00,23.1,21.8,00.0,31.8,24.9,12.0,0000.0,0002.38,0001.33,0000.80
2023-02-25 22:17:00,,0821.6,5.00,0.00,23.1,21.8,00.0,31.8,24.9,12.0,0000.0,0002.36,0001.32,0000.79
2023-02-25 22:18:00,,0821.6,5.00,0.00,23.1,21.8,00.0,31.8,24.9,10.9,0000.0,0002.26,0001.29,0000.78
2023-02-25 22:19:00,,0821.6,4.99,0.00,23.1,21.8,00.0,31.8,24.9,10.4,0000.0,0002.19,0001.26,0000.78
2023-02-25 22:20:00,,0821.6,5.00,0.00,23.1,21.8,00.0,31.8,24.9,10.9,0000.0,0002.22,0001.26,0000.78
2023-02-25 22:21:00,,0821.5,5.00,0.00,23.1,21.8,00.0,31.8,24.9,10.6,0000.0,0002.23,0001.26,0000.78
2023-02-25 22:22:00,,0821.5,5.00,0.00,23.1,21.7,00.0,31.8,24.9,10.5,0000.0,0002.15,0001.22,0000.78
2023-02-25 22:23:00,,0821.5,5.01,0.00,23.1,21.7,00.0,31.8,24.9,10.5,0000.0,0002.22,0001.24,0000.79
2023-02-25 22:24:00,,0821.5,5.00,0.00,23.1,21.7,00.0,31.8,24.9,10.3,0000.0,0002.23,0001.25,0000.80
2023-02-25 22:25:00,,0821.5,5.01,0.00,23.1,21.7,00.0,31.8,24.9,10.0,0000.0,0002.20,0001.24,0000.80
2023-02-25 22:26:00,,0821.6,5.00,0.00,23.1,21.7,00.0,31.8,24.9,10.3,0000.0,0002.27,0001.26,0000.81
2023-02-25 22:27:00,,0821.5,5.00,0.00,23.1,21.7,00.0,31.8,24.9,11.0,0000.0,0003.08,0001.27,0000.81
2023-02-25 22:28:00,,0821.5,5.01,0.00,23.1,21.7,00.0,31.8,24.9,10.9,0000.0,0003.66,0001.30,0000.82
2023-02-25 22:29:00,,0821.6,5.00,0.00,23.1,21.7,00.0,31.8,24.9,11.1,0000.0,0003.98,0001.38,0000.82
2023-02-25 22:30:00,,0821.6,5.00,0.00,23.1,21.7,00.0,31.8,24.9,11.3,0000.0,0004.11,0001.42,0000.82
2023-02-25 22:31:00,,0821.6,4.99,0.00,23.1,21.8,00.0,31.8,24.9,11.1,0000.0,0004.17,0001.44,0000.82
2023-02-25 22:32:00,,0821.6,5.00,0.00,23.1,21.8,00.0,31.8,24.9,10.7,0000.0,0004.24,0001.47,0000.82
2023-02-25 22:33:00,,0821.6,5.00,0.00,23.1,21.8,00.0,31.8,24.9,10.5,0000.0,0004.21,0001.49,0000.80
2023-02-25 22:34:00,,0821.5,5.00,0.00,23.1,21.8,00.0,31.8,24.9,11.0,0000.0,0004.41,0001.57,0000.79
2023-02-25 22:35:00,,0821.7,5.02,0.00,23.1,21.8,00.0,31.8,24.9,10.9,0000.0,0004.51,0001.61,0000.78
2023-02-25 22:36:00,,0821.7,4.99,0.00,23.1,21.8,00.0,31.8,24.9,11.3,0000.0,0004.49,0001.61,0000.78
2023-02-25 22:37:00,,0821.6,4.99,0.00,23.1,21.7,00.0,31.8,24.9,11.4,0000.0,0004.42,0001.60,0000.76
2023-02-25 22:38:00,,0821.6,4.99,0.00,23.1,21.8,00.0,31.8,24.9,11.0,0000.0,0003.66,0001.57,0000.75
2023-02-25 22:39:00,,0821.6,5.01,0.00,23.1,21.7,00.0,31.8,24.9,10.8,0000.0,0002.92,0001.53,0000.74
2023-02-25 22:40:00,,0821.6,5.01,0.00,23.1,21.7,00.0,31.8,24.9,10.5,0000.0,0002.59,0001.45,0000.74
2023-02-25 22:41:00,,0821.6,5.00,0.00,23.1,21.7,00.0,31.8,24.9,10.6,0000.0,0002.51,0001.42,0000.75
2023-02-25 22:42:00,,0821.6,4.99,0.00,23.1,21.7,00.0,31.8,24.9,10.7,0000.0,0002.47,0001.40,0000.75
2023-02-25 22:43:00,,0821.6,5.00,0.00,23.1,21.7,00.0,31.8,24.9,10.9,0000.0,0002.38,0001.36,0000.75
2023-02-25 22:44:00,,0821.6,5.00,0.00,23.1,21.7,00.0,31.8,24.9,10.7,0000.0,0002.38,0001.33,0000.76
2023-02-25 22:45:00,,0821.6,4.99,0.00,23.1,21.7,00.0,31.8,24.9,10.7,0000.0,0002.27,0001.27,0000.77
2023-02-25 22:46:00,,0821.6,4.98,0.00,23.1,21.6,00.0,31.8,24.9,11.1,0000.0,0002.23,0001.25,0000.78
2023-02-25 22:47:00,,0821.6,4.98,0.00,23.1,21.6,00.0,31.8,24.9,10.7,0000.0,0002.12,0001.20,0000.78
2023-02-25 22:48:00,,0821.5,5.01,0.00,23.1,21.6,00.0,31.8,24.9,10.6,0000.0,0002.19,0001.22,0000.79
2023-02-25 22:49:00,,0821.6,5.00,0.00,23.1,21.6,00.0,31.8,24.9,10.6,0000.0,0002.21,0001.24,0000.79
2023-02-25 22:50:00,,0821.7,4.99,0.00,23.1,21.6,00.0,31.8,24.9,10.9,0000.0,0002.21,0001.24,0000.79
2023-02-25 22:51:00,,0821.6,4.99,0.00,23.1,21.7,00.0,31.8,24.9,11.0,0000.0,0002.32,0001.25,0000.78
2023-02-25 22:52:00,,0821.7,4.99,0.00,23.1,21.7,00.0,31.8,24.9,10.8,0000.0,0002.56,0001.29,0000.77
2023-02-25 22:53:00,,0821.7,4.99,0.00,23.1,21.7,00.0,31.8,24.9,11.1,0000.0,0002.58,0001.29,0000.76
2023-02-25 22:54:00,,0821.7,4.99,0.00,23.1,21.7,00.0,31.8,24.9,11.0,0000.0,0002.56,0001.29,0000.76
2023-02-25 22:55:00,,0821.7,5.00,0.00,23.1,21.7,00.0,31.8,24.9,10.5,0000.0,0002.53,0001.31,0000.77
2023-02-25 22:56:00,,0821.7,4.99,0.00,23.1,21.7,00.0,31.8,24.9,10.9,0000.0,0002.40,0001.26,0000.76
2023-02-25 22:57:00,,0821.7,4.99,0.00,23.1,21.7,00.0,31.8,24.9,10.9,0000.0,0002.27,0001.21,0000.75
2023-02-25 22:58:00,,0821.8,5.00,0.00,23.1,21.7,00.0,31.8,24.9,10.8,0000.0,0002.38,0001.24,0000.74
2023-02-25 22:59:00,,0821.7,5.00,0.00,23.1,21.7,00.0,31.8,24.9,10.9,0000.0,0002.37,0001.24,0000.73
